Year,Month,Day,Hour,Minute,Value (Times are PST for windgust in km/hr)
2014,02,14,00,00,30.60
2014,02,14,00,01,32.20
2014,02,14,00,02,32.20
2014,02,14,00,03,37.00
2014,02,14,00,04,27.40
2014,02,14,00,05,32.20
2014,02,14,00,06,29.00
2014,02,14,00,07,29.00
2014,02,14,00,08,37.00
2014,02,14,00,09,33.80
2014,02,14,00,10,35.40
2014,02,14,00,11,33.80
2014,02,14,00,12,30.60
2014,02,14,00,13,29.00
2014,02,14,00,14,30.60
2014,02,14,00,15,27.40
2014,02,14,00,16,33.80
2014,02,14,00,17,38.60
2014,02,14,00,18,32.20
2014,02,14,00,19,37.00
2014,02,14,00,20,40.20
2014,02,14,00,21,35.40
2014,02,14,00,22,30.60
2014,02,14,00,23,41.80
2014,02,14,00,24,35.40
2014,02,14,00,25,35.40
2014,02,14,00,26,35.40
2014,02,14,00,27,25.70
2014,02,14,00,28,30.60
2014,02,14,00,29,25.70
2014,02,14,00,30,35.40
2014,02,14,00,31,32.20
2014,02,14,00,32,38.60
2014,02,14,00,33,40.20
2014,02,14,00,34,27.40
2014,02,14,00,35,27.40
2014,02,14,00,36,38.60
2014,02,14,00,37,32.20
2014,02,14,00,38,33.80
2014,02,14,00,39,29.00
2014,02,14,00,40,25.70
2014,02,14,00,41,27.40
2014,02,14,00,42,30.60
2014,02,14,00,43,25.70
2014,02,14,00,44,30.60
2014,02,14,00,45,33.80
2014,02,14,00,46,33.80
2014,02,14,00,47,30.60
2014,02,14,00,48,32.20
2014,02,14,00,49,43.50
2014,02,14,00,50,29.00
2014,02,14,00,51,22.50
2014,02,14,00,52,32.20
2014,02,14,00,53,30.60
2014,02,14,00,54,37.00
2014,02,14,00,55,32.20
2014,02,14,00,56,33.80
2014,02,14,00,57,30.60
2014,02,14,00,58,20.90
2014,02,14,00,59,25.70
2014,02,14,01,00,32.20
2014,02,14,01,01,33.80
2014,02,14,01,02,22.50
2014,02,14,01,03,27.40
2014,02,14,01,04,37.00
2014,02,14,01,05,35.40
2014,02,14,01,06,33.80
2014,02,14,01,07,38.60
2014,02,14,01,08,27.40
2014,02,14,01,09,29.00
2014,02,14,01,10,27.40
2014,02,14,01,11,32.20
2014,02,14,01,12,33.80
2014,02,14,01,13,35.40
2014,02,14,01,14,30.60
2014,02,14,01,15,33.80
2014,02,14,01,16,40.20
2014,02,14,01,17,53.10
2014,02,14,01,18,37.00
2014,02,14,01,19,38.60
2014,02,14,01,20,41.80
2014,02,14,01,21,46.70
2014,02,14,01,22,37.00
2014,02,14,01,23,43.50
2014,02,14,01,24,41.80
2014,02,14,01,25,40.20
2014,02,14,01,26,35.40
2014,02,14,01,27,46.70
2014,02,14,01,28,32.20
2014,02,14,01,29,32.20
2014,02,14,01,30,38.60
2014,02,14,01,31,33.80
2014,02,14,01,32,32.20
2014,02,14,01,33,40.20
2014,02,14,01,34,41.80
2014,02,14,01,35,49.90
2014,02,14,01,36,37.00
2014,02,14,01,37,32.20
2014,02,14,01,38,37.00
2014,02,14,01,39,37.00
2014,02,14,01,40,38.60
2014,02,14,01,41,38.60
2014,02,14,01,42,41.80
2014,02,14,01,43,41.80
2014,02,14,01,44,43.50
2014,02,14,01,45,43.50
2014,02,14,01,46,46.70
2014,02,14,01,47,40.20
2014,02,14,01,48,38.60
2014,02,14,01,49,29.00
2014,02,14,01,50,33.80
2014,02,14,01,51,35.40
2014,02,14,01,52,33.80
2014,02,14,01,53,45.10
2014,02,14,01,54,40.20
2014,02,14,01,55,45.10
2014,02,14,01,56,41.80
2014,02,14,01,57,41.80
2014,02,14,01,58,43.50
2014,02,14,01,59,51.50
2014,02,14,02,00,46.70
2014,02,14,02,01,30.60
2014,02,14,02,02,35.40
2014,02,14,02,03,33.80
2014,02,14,02,04,38.60
2014,02,14,02,05,30.60
2014,02,14,02,06,43.50
2014,02,14,02,07,30.60
2014,02,14,02,08,41.80
2014,02,14,02,09,38.60
2014,02,14,02,10,56.30
2014,02,14,02,11,43.50
2014,02,14,02,12,49.90
2014,02,14,02,13,41.80
2014,02,14,02,14,37.00
2014,02,14,02,15,33.80
2014,02,14,02,16,53.10
2014,02,14,02,17,35.40
2014,02,14,02,18,27.40
2014,02,14,02,19,40.20
2014,02,14,02,20,32.20
2014,02,14,02,21,37.00
2014,02,14,02,22,30.60
2014,02,14,02,23,32.20
2014,02,14,02,24,40.20
2014,02,14,02,25,48.30
2014,02,14,02,26,43.50
2014,02,14,02,27,33.80
2014,02,14,02,28,33.80
2014,02,14,02,29,45.10
2014,02,14,02,30,49.90
2014,02,14,02,31,27.40
2014,02,14,02,32,38.60
2014,02,14,02,33,35.40
2014,02,14,02,34,25.70
2014,02,14,02,35,32.20
2014,02,14,02,36,33.80
2014,02,14,02,37,20.90
2014,02,14,02,38,41.80
2014,02,14,02,39,33.80
2014,02,14,02,40,29.00
2014,02,14,02,41,48.30
2014,02,14,02,42,37.00
2014,02,14,02,43,35.40
2014,02,14,02,44,33.80
2014,02,14,02,45,33.80
2014,02,14,02,46,40.20
2014,02,14,02,47,35.40
2014,02,14,02,48,41.80
2014,02,14,02,49,45.10
2014,02,14,02,50,48.30
2014,02,14,02,51,35.40
2014,02,14,02,52,30.60
2014,02,14,02,53,40.20
2014,02,14,02,54,35.40
2014,02,14,02,55,46.70
2014,02,14,02,56,32.20
2014,02,14,02,57,37.00
2014,02,14,02,58,37.00
2014,02,14,02,59,27.40
2014,02,14,03,00,53.10
2014,02,14,03,01,53.10
2014,02,14,03,02,57.90
2014,02,14,03,03,45.10
2014,02,14,03,06,38.60
2014,02,14,03,07,27.40
2014,02,14,03,08,41.80
2014,02,14,03,09,64.40
2014,02,14,03,10,64.40
2014,02,14,03,11,45.10
2014,02,14,03,12,35.40
2014,02,14,03,13,51.50
2014,02,14,03,14,43.50
2014,02,14,03,15,56.30
2014,02,14,03,16,66.00
2014,02,14,03,17,57.90
2014,02,14,03,18,57.90
2014,02,14,03,19,54.70
2014,02,14,03,20,59.50
2014,02,14,03,21,61.20
2014,02,14,03,22,53.10
2014,02,14,03,23,51.50
2014,02,14,03,24,32.20
2014,02,14,03,25,41.80
2014,02,14,03,26,51.50
2014,02,14,03,27,37.00
2014,02,14,03,28,46.70
2014,02,14,03,29,48.30
2014,02,14,03,30,49.90
2014,02,14,03,31,64.40
2014,02,14,03,32,53.10
2014,02,14,03,33,61.20
2014,02,14,03,34,61.20
2014,02,14,03,35,43.50
2014,02,14,03,36,54.70
2014,02,14,03,37,62.70
2014,02,14,03,38,57.90
2014,02,14,03,39,59.50
2014,02,14,03,40,61.20
2014,02,14,03,41,59.50
2014,02,14,03,42,37.00
2014,02,14,03,43,43.50
2014,02,14,03,44,45.10
2014,02,14,03,45,62.70
2014,02,14,03,46,56.30
2014,02,14,03,47,49.90
2014,02,14,03,48,53.10
2014,02,14,03,49,53.10
2014,02,14,03,50,62.70
2014,02,14,03,51,45.10
2014,02,14,03,52,51.50
2014,02,14,03,53,40.20
2014,02,14,03,54,43.50
2014,02,14,03,55,54.70
2014,02,14,03,56,51.50
2014,02,14,03,57,54.70
2014,02,14,03,58,57.90
2014,02,14,03,59,62.70
2014,02,14,04,00,49.90
2014,02,14,04,01,46.70
2014,02,14,04,02,49.90
2014,02,14,04,03,51.50
2014,02,14,04,04,46.70
2014,02,14,04,05,48.30
2014,02,14,04,06,37.00
2014,02,14,04,07,43.50
2014,02,14,04,08,46.70
2014,02,14,04,09,46.70
2014,02,14,04,10,37.00
2014,02,14,04,11,37.00
2014,02,14,04,12,40.20
2014,02,14,04,13,43.50
2014,02,14,04,14,43.50
2014,02,14,04,15,41.80
2014,02,14,04,16,43.50
2014,02,14,04,17,43.50
2014,02,14,04,18,43.50
2014,02,14,04,19,29.00
2014,02,14,04,20,37.00
2014,02,14,04,21,30.60
2014,02,14,04,22,40.20
2014,02,14,04,23,41.80
2014,02,14,04,24,45.10
2014,02,14,04,25,37.00
2014,02,14,04,26,33.80
2014,02,14,04,27,33.80
2014,02,14,04,28,27.40
2014,02,14,04,29,43.50
2014,02,14,04,30,37.00
2014,02,14,04,31,41.80
2014,02,14,04,32,33.80
2014,02,14,04,33,38.60
2014,02,14,04,34,38.60
2014,02,14,04,35,48.30
2014,02,14,04,36,40.20
2014,02,14,04,37,33.80
2014,02,14,04,38,33.80
2014,02,14,04,39,38.60
2014,02,14,04,40,43.50
2014,02,14,04,41,46.70
2014,02,14,04,42,53.10
2014,02,14,04,43,45.10
2014,02,14,04,44,40.20
2014,02,14,04,45,33.80
2014,02,14,04,46,33.80
2014,02,14,04,47,35.40
2014,02,14,04,48,40.20
2014,02,14,04,49,38.60
2014,02,14,04,50,40.20
2014,02,14,04,51,43.50
2014,02,14,04,52,38.60
2014,02,14,04,53,32.20
2014,02,14,04,54,40.20
2014,02,14,04,55,37.00
2014,02,14,04,56,38.60
2014,02,14,04,57,35.40
2014,02,14,04,58,45.10
2014,02,14,04,59,46.70
2014,02,14,05,00,41.80
2014,02,14,05,01,41.80
2014,02,14,05,02,41.80
2014,02,14,05,03,53.10
2014,02,14,05,04,37.00
2014,02,14,05,05,37.00
2014,02,14,05,06,33.80
2014,02,14,05,07,30.60
2014,02,14,05,08,35.40
2014,02,14,05,09,29.00
2014,02,14,05,10,32.20
2014,02,14,05,11,32.20
2014,02,14,05,12,40.20
2014,02,14,05,13,53.10
2014,02,14,05,14,41.80
2014,02,14,05,15,43.50
2014,02,14,05,16,40.20
2014,02,14,05,17,46.70
2014,02,14,05,18,61.20
2014,02,14,05,19,43.50
2014,02,14,05,20,53.10
2014,02,14,05,21,67.60
2014,02,14,05,22,57.90
2014,02,14,05,23,53.10
2014,02,14,05,24,51.50
2014,02,14,05,25,49.90
2014,02,14,05,26,49.90
2014,02,14,05,27,49.90
2014,02,14,05,28,40.20
2014,02,14,05,29,48.30
2014,02,14,05,30,33.80
2014,02,14,05,31,46.70
2014,02,14,05,32,41.80
2014,02,14,05,33,43.50
2014,02,14,05,34,49.90
2014,02,14,05,35,67.60
2014,02,14,05,36,45.10
2014,02,14,05,37,46.70
2014,02,14,05,38,24.20
2014,02,14,05,39,37.00
2014,02,14,05,40,51.50
2014,02,14,05,41,43.50
2014,02,14,05,42,27.40
2014,02,14,05,43,43.50
2014,02,14,05,44,38.60
2014,02,14,05,45,41.80
2014,02,14,05,46,38.60
2014,02,14,05,47,35.40
2014,02,14,05,48,29.00
2014,02,14,05,49,48.30
2014,02,14,05,50,37.00
2014,02,14,05,51,38.60
2014,02,14,05,52,41.80
2014,02,14,05,53,53.10
2014,02,14,05,54,43.50
2014,02,14,05,55,32.20
2014,02,14,05,56,38.60
2014,02,14,05,57,37.00
2014,02,14,05,58,49.90
2014,02,14,05,59,33.80
2014,02,14,06,00,38.60
2014,02,14,06,01,43.50
2014,02,14,06,02,43.50
2014,02,14,06,03,38.60
2014,02,14,06,04,35.40
2014,02,14,06,05,46.70
2014,02,14,06,06,40.20
2014,02,14,06,07,46.70
2014,02,14,06,08,40.20
2014,02,14,06,09,33.80
2014,02,14,06,10,43.50
2014,02,14,06,11,32.20
2014,02,14,06,12,33.80
2014,02,14,06,13,25.70
2014,02,14,06,14,38.60
2014,02,14,06,15,27.40
2014,02,14,06,16,29.00
2014,02,14,06,17,32.20
2014,02,14,06,18,35.40
2014,02,14,06,19,30.60
2014,02,14,06,20,30.60
2014,02,14,06,21,43.50
2014,02,14,06,22,37.00
2014,02,14,06,23,38.60
2014,02,14,06,24,27.40
2014,02,14,06,25,32.20
2014,02,14,06,26,33.80
2014,02,14,06,27,33.80
2014,02,14,06,28,35.40
2014,02,14,06,29,35.40
2014,02,14,06,30,30.60
2014,02,14,06,31,38.60
2014,02,14,06,32,32.20
2014,02,14,06,33,30.60
2014,02,14,06,34,33.80
2014,02,14,06,35,32.20
2014,02,14,06,36,37.00
2014,02,14,06,37,32.20
2014,02,14,06,38,38.60
2014,02,14,06,39,32.20
2014,02,14,06,40,30.60
2014,02,14,06,41,32.20
2014,02,14,06,42,32.20
2014,02,14,06,43,32.20
2014,02,14,06,44,29.00
2014,02,14,06,45,22.50
2014,02,14,06,46,29.00
2014,02,14,06,47,24.20
2014,02,14,06,48,32.20
2014,02,14,06,49,24.20
2014,02,14,06,50,29.00
2014,02,14,06,51,27.40
2014,02,14,06,52,29.00
2014,02,14,06,53,29.00
2014,02,14,06,54,27.40
2014,02,14,06,55,20.90
2014,02,14,06,56,27.40
2014,02,14,06,57,25.70
2014,02,14,06,58,24.20
2014,02,14,06,59,24.20
2014,02,14,07,00,27.40
2014,02,14,07,01,29.00
2014,02,14,07,02,29.00
2014,02,14,07,03,29.00
2014,02,14,07,04,29.00
2014,02,14,07,05,24.20
2014,02,14,07,06,35.40
2014,02,14,07,07,27.40
2014,02,14,07,08,33.80
2014,02,14,07,09,40.20
2014,02,14,07,10,37.00
2014,02,14,07,11,32.20
2014,02,14,07,12,37.00
2014,02,14,07,13,35.40
2014,02,14,07,14,38.60
2014,02,14,07,15,37.00
2014,02,14,07,16,38.60
2014,02,14,07,17,41.80
2014,02,14,07,18,37.00
2014,02,14,07,19,33.80
2014,02,14,07,20,25.70
2014,02,14,07,21,29.00
2014,02,14,07,22,27.40
2014,02,14,07,23,22.50
2014,02,14,07,24,17.70
2014,02,14,07,25,11.30
2014,02,14,07,26,17.70
2014,02,14,07,27,16.10
2014,02,14,07,28,20.90
2014,02,14,07,29,16.10
2014,02,14,07,30,22.50
2014,02,14,07,31,20.90
2014,02,14,07,32,19.30
2014,02,14,07,33,19.30
2014,02,14,07,34,19.30
2014,02,14,07,35,19.30
2014,02,14,07,36,17.70
2014,02,14,07,37,20.90
2014,02,14,07,38,27.40
2014,02,14,07,39,27.40
2014,02,14,07,40,27.40
2014,02,14,07,41,37.00
2014,02,14,07,42,22.50
2014,02,14,07,43,24.20
2014,02,14,07,44,35.40
2014,02,14,07,45,32.20
2014,02,14,07,46,30.60
2014,02,14,07,47,20.90
2014,02,14,07,48,22.50
2014,02,14,07,49,29.00
2014,02,14,07,50,22.50
2014,02,14,07,51,24.20
2014,02,14,07,52,25.70
2014,02,14,07,53,17.70
2014,02,14,07,54,17.70
2014,02,14,07,55,19.30
2014,02,14,07,56,12.90
2014,02,14,07,57,14.50
2014,02,14,07,58,14.50
2014,02,14,07,59,11.30
2014,02,14,08,00,11.30
2014,02,14,08,01,9.60
2014,02,14,08,02,8.10
2014,02,14,08,03,9.60
2014,02,14,08,04,11.30
2014,02,14,08,05,14.50
2014,02,14,08,06,17.70
2014,02,14,08,07,16.10
2014,02,14,08,08,17.70
2014,02,14,08,09,17.70
2014,02,14,08,10,20.90
2014,02,14,08,11,20.90
2014,02,14,08,12,22.50
2014,02,14,08,13,19.30
2014,02,14,08,14,14.50
2014,02,14,08,15,16.10
2014,02,14,08,16,17.70
2014,02,14,08,17,20.90
2014,02,14,08,18,16.10
2014,02,14,08,19,17.70
2014,02,14,08,20,17.70
2014,02,14,08,21,17.70
2014,02,14,08,22,11.30
2014,02,14,08,23,16.10
2014,02,14,08,24,17.70
2014,02,14,08,25,24.20
2014,02,14,08,26,22.50
2014,02,14,08,27,22.50
2014,02,14,08,28,24.20
2014,02,14,08,29,19.30
2014,02,14,08,30,22.50
2014,02,14,08,31,25.70
2014,02,14,08,32,19.30
2014,02,14,08,33,24.20
2014,02,14,08,34,17.70
2014,02,14,08,35,20.90
2014,02,14,08,36,11.30
2014,02,14,08,37,20.90
2014,02,14,08,38,17.70
2014,02,14,08,39,11.30
2014,02,14,08,40,11.30
2014,02,14,08,41,17.70
2014,02,14,08,42,14.50
2014,02,14,08,43,17.70
2014,02,14,08,44,14.50
2014,02,14,08,45,19.30
2014,02,14,08,46,17.70
2014,02,14,08,47,17.70
2014,02,14,08,48,9.60
2014,02,14,08,49,14.50
2014,02,14,08,50,11.30
2014,02,14,08,51,11.30
2014,02,14,08,52,8.10
2014,02,14,08,53,11.30
2014,02,14,08,54,9.60
2014,02,14,08,55,14.50
2014,02,14,08,56,12.90
2014,02,14,08,57,9.60
2014,02,14,08,58,8.10
2014,02,14,08,59,6.40
2014,02,14,09,00,9.60
2014,02,14,09,01,11.30
2014,02,14,09,02,8.10
2014,02,14,09,03,6.40
2014,02,14,09,04,6.40
2014,02,14,09,05,9.60
2014,02,14,09,06,14.50
2014,02,14,09,07,14.50
2014,02,14,09,08,12.90
2014,02,14,09,09,9.60
2014,02,14,09,10,9.60
2014,02,14,09,11,11.30
2014,02,14,09,12,8.10
2014,02,14,09,13,11.30
2014,02,14,09,14,11.30
2014,02,14,09,15,14.50
2014,02,14,09,16,9.60
2014,02,14,09,17,11.30
2014,02,14,09,18,11.30
2014,02,14,09,19,9.60
2014,02,14,09,20,8.10
2014,02,14,09,21,8.10
2014,02,14,09,22,8.10
2014,02,14,09,23,8.10
2014,02,14,09,24,8.10
2014,02,14,09,25,8.10
2014,02,14,09,26,9.60
2014,02,14,09,27,9.60
2014,02,14,09,28,8.10
2014,02,14,09,29,4.80
2014,02,14,09,30,6.40
2014,02,14,09,31,8.10
2014,02,14,09,32,6.40
2014,02,14,09,33,4.80
2014,02,14,09,34,4.80
2014,02,14,09,35,4.80
2014,02,14,09,36,3.20
2014,02,14,09,37,3.20
2014,02,14,09,38,4.80
2014,02,14,09,39,4.80
2014,02,14,09,40,4.80
2014,02,14,09,41,4.80
2014,02,14,09,42,6.40
2014,02,14,09,43,4.80
2014,02,14,09,44,6.40
2014,02,14,09,45,8.10
2014,02,14,09,46,9.60
2014,02,14,09,47,8.10
2014,02,14,09,48,14.50
2014,02,14,09,49,9.60
2014,02,14,09,50,14.50
2014,02,14,09,51,16.10
2014,02,14,09,52,8.10
2014,02,14,09,53,8.10
2014,02,14,09,54,6.40
2014,02,14,09,55,6.40
2014,02,14,09,56,6.40
2014,02,14,09,57,6.40
2014,02,14,09,58,9.60
2014,02,14,09,59,11.30
2014,02,14,10,00,3.20
2014,02,14,10,01,3.20
2014,02,14,10,02,3.20
2014,02,14,10,03,6.40
2014,02,14,10,04,6.40
2014,02,14,10,05,6.40
2014,02,14,10,06,8.10
2014,02,14,10,07,8.10
2014,02,14,10,08,11.30
2014,02,14,10,09,14.50
2014,02,14,10,10,9.60
2014,02,14,10,11,8.10
2014,02,14,10,12,8.10
2014,02,14,10,13,11.30
2014,02,14,10,14,11.30
2014,02,14,10,15,9.60
2014,02,14,10,16,6.40
2014,02,14,10,17,6.40
2014,02,14,10,18,6.40
2014,02,14,10,19,8.10
2014,02,14,10,20,8.10
2014,02,14,10,21,8.10
2014,02,14,10,22,8.10
2014,02,14,10,23,8.10
2014,02,14,10,24,8.10
2014,02,14,10,25,11.30
2014,02,14,10,26,12.90
2014,02,14,10,27,20.90
2014,02,14,10,28,19.30
2014,02,14,10,29,20.90
2014,02,14,10,30,19.30
2014,02,14,10,31,16.10
2014,02,14,10,32,19.30
2014,02,14,10,33,16.10
2014,02,14,10,34,27.40
2014,02,14,10,35,25.70
2014,02,14,10,36,20.90
2014,02,14,10,37,16.10
2014,02,14,10,38,11.30
2014,02,14,10,39,9.60
2014,02,14,10,40,16.10
2014,02,14,10,41,11.30
2014,02,14,10,42,16.10
2014,02,14,10,43,20.90
2014,02,14,10,44,16.10
2014,02,14,10,45,16.10
2014,02,14,10,46,14.50
2014,02,14,10,47,20.90
2014,02,14,10,48,19.30
2014,02,14,10,49,16.10
2014,02,14,10,50,12.90
2014,02,14,10,51,16.10
2014,02,14,10,52,8.10
2014,02,14,10,53,8.10
2014,02,14,10,54,6.40
2014,02,14,10,55,8.10
2014,02,14,10,56,11.30
2014,02,14,10,57,16.10
2014,02,14,10,58,9.60
2014,02,14,10,59,17.70
2014,02,14,11,00,17.70
2014,02,14,11,01,11.30
2014,02,14,11,02,8.10
2014,02,14,11,03,11.30
2014,02,14,11,04,8.10
2014,02,14,11,05,3.20
2014,02,14,11,06,4.80
2014,02,14,11,07,6.40
2014,02,14,11,08,6.40
2014,02,14,11,09,3.20
2014,02,14,11,10,9.60
2014,02,14,11,11,17.70
2014,02,14,11,12,16.10
2014,02,14,11,13,11.30
2014,02,14,11,14,11.30
2014,02,14,11,15,11.30
2014,02,14,11,16,11.30
2014,02,14,11,17,9.60
2014,02,14,11,18,6.40
2014,02,14,11,19,9.60
2014,02,14,11,20,19.30
2014,02,14,11,21,14.50
2014,02,14,11,22,19.30
2014,02,14,11,23,17.70
2014,02,14,11,24,12.90
2014,02,14,11,25,11.30
2014,02,14,11,26,16.10
2014,02,14,11,27,16.10
2014,02,14,11,28,11.30
2014,02,14,11,29,17.70
2014,02,14,11,30,14.50
2014,02,14,11,31,8.10
2014,02,14,11,32,9.60
2014,02,14,11,33,11.30
2014,02,14,11,34,9.60
2014,02,14,11,35,16.10
2014,02,14,11,36,16.10
2014,02,14,11,37,8.10
2014,02,14,11,38,6.40
2014,02,14,11,39,8.10
2014,02,14,11,40,8.10
2014,02,14,11,41,8.10
2014,02,14,11,42,9.60
2014,02,14,11,43,9.60
2014,02,14,11,44,9.60
2014,02,14,11,45,8.10
2014,02,14,11,46,9.60
2014,02,14,11,47,11.30
2014,02,14,11,48,9.60
2014,02,14,11,49,6.40
2014,02,14,11,50,9.60
2014,02,14,11,51,12.90
2014,02,14,11,52,11.30
2014,02,14,11,53,8.10
2014,02,14,11,54,11.30
2014,02,14,11,55,14.50
2014,02,14,11,56,14.50
2014,02,14,11,57,8.10
2014,02,14,12,00,8.10
2014,02,14,12,01,6.40
2014,02,14,12,02,11.30
2014,02,14,12,03,11.30
2014,02,14,12,04,9.60
2014,02,14,12,05,9.60
2014,02,14,12,06,9.60
2014,02,14,12,07,9.60
2014,02,14,12,08,6.40
2014,02,14,12,09,6.40
2014,02,14,12,10,6.40
2014,02,14,12,11,9.60
2014,02,14,12,12,9.60
2014,02,14,12,13,11.30
2014,02,14,12,14,14.50
2014,02,14,12,15,16.10
2014,02,14,12,16,16.10
2014,02,14,12,17,11.30
2014,02,14,12,18,9.60
2014,02,14,12,19,8.10
2014,02,14,12,20,8.10
2014,02,14,12,21,9.60
2014,02,14,12,22,11.30
2014,02,14,12,23,11.30
2014,02,14,12,24,9.60
2014,02,14,12,25,8.10
2014,02,14,12,26,9.60
2014,02,14,12,27,9.60
2014,02,14,12,28,6.40
2014,02,14,12,29,3.20
2014,02,14,12,30,3.20
2014,02,14,12,31,3.20
2014,02,14,12,32,4.80
2014,02,14,12,33,11.30
2014,02,14,12,34,19.30
2014,02,14,12,35,9.60
2014,02,14,12,36,9.60
2014,02,14,12,37,6.40
2014,02,14,12,38,14.50
2014,02,14,12,39,22.50
2014,02,14,12,40,24.20
2014,02,14,12,41,17.70
2014,02,14,12,42,17.70
2014,02,14,12,43,27.40
2014,02,14,12,44,24.20
2014,02,14,12,45,22.50
2014,02,14,12,46,11.30
2014,02,14,12,47,8.10
2014,02,14,12,48,24.20
2014,02,14,12,49,33.80
2014,02,14,12,50,25.70
2014,02,14,12,51,19.30
2014,02,14,12,52,17.70
2014,02,14,12,53,20.90
2014,02,14,12,54,16.10
2014,02,14,12,55,20.90
2014,02,14,12,56,19.30
2014,02,14,12,57,14.50
2014,02,14,12,58,16.10
2014,02,14,12,59,11.30
2014,02,14,13,00,9.60
2014,02,14,13,01,16.10
2014,02,14,13,02,17.70
2014,02,14,13,03,19.30
2014,02,14,13,04,19.30
2014,02,14,13,05,19.30
2014,02,14,13,06,19.30
2014,02,14,13,07,19.30
2014,02,14,13,08,20.90
2014,02,14,13,09,20.90
2014,02,14,13,10,17.70
2014,02,14,13,11,11.30
2014,02,14,13,12,17.70
2014,02,14,13,13,11.30
2014,02,14,13,14,16.10
2014,02,14,13,15,17.70
2014,02,14,13,16,8.10
2014,02,14,13,17,9.60
2014,02,14,13,18,14.50
2014,02,14,13,19,9.60
2014,02,14,13,20,14.50
2014,02,14,13,21,9.60
2014,02,14,13,22,8.10
2014,02,14,13,23,6.40
2014,02,14,13,24,11.30
2014,02,14,13,25,17.70
2014,02,14,13,26,20.90
2014,02,14,13,27,17.70
2014,02,14,13,28,11.30
2014,02,14,13,29,14.50
2014,02,14,13,30,16.10
2014,02,14,13,31,12.90
2014,02,14,13,32,11.30
2014,02,14,13,33,9.60
2014,02,14,13,34,9.60
2014,02,14,13,35,8.10
2014,02,14,13,36,8.10
2014,02,14,13,37,4.80
2014,02,14,13,38,8.10
2014,02,14,13,39,8.10
2014,02,14,13,40,8.10
2014,02,14,13,41,6.40
2014,02,14,13,42,9.60
2014,02,14,13,43,8.10
2014,02,14,13,44,6.40
2014,02,14,13,45,8.10
2014,02,14,13,46,6.40
2014,02,14,13,47,6.40
2014,02,14,13,48,6.40
2014,02,14,13,49,3.20
2014,02,14,13,51,1.60
2014,02,14,13,52,8.10
2014,02,14,13,53,8.10
2014,02,14,13,54,9.60
2014,02,14,13,55,6.40
2014,02,14,13,56,24.20
2014,02,14,13,57,12.90
2014,02,14,13,58,6.40
2014,02,14,13,59,16.10
2014,02,14,14,00,16.10
2014,02,14,14,01,17.70
2014,02,14,14,02,11.30
2014,02,14,14,03,14.50
2014,02,14,14,04,12.90
2014,02,14,14,05,11.30
2014,02,14,14,06,14.50
2014,02,14,14,07,16.10
2014,02,14,14,08,8.10
2014,02,14,14,09,9.60
2014,02,14,14,10,11.30
2014,02,14,14,11,17.70
2014,02,14,14,12,14.50
2014,02,14,14,13,14.50
2014,02,14,14,14,11.30
2014,02,14,14,15,9.60
2014,02,14,14,16,14.50
2014,02,14,14,17,11.30
2014,02,14,14,18,9.60
2014,02,14,14,19,11.30
2014,02,14,14,20,8.10
2014,02,14,14,21,8.10
2014,02,14,14,22,11.30
2014,02,14,14,23,9.60
2014,02,14,14,24,8.10
2014,02,14,14,25,8.10
2014,02,14,14,26,6.40
2014,02,14,14,27,8.10
2014,02,14,14,28,11.30
2014,02,14,14,29,9.60
2014,02,14,14,30,17.70
2014,02,14,14,31,11.30
2014,02,14,14,32,11.30
2014,02,14,14,33,6.40
2014,02,14,14,34,8.10
2014,02,14,14,35,8.10
2014,02,14,14,36,9.60
2014,02,14,14,37,11.30
2014,02,14,14,38,11.30
2014,02,14,14,39,11.30
2014,02,14,14,40,9.60
2014,02,14,14,41,8.10
2014,02,14,14,42,3.20
2014,02,14,14,43,4.80
2014,02,14,14,44,8.10
2014,02,14,14,45,3.20
2014,02,14,14,46,8.10
2014,02,14,14,47,4.80
2014,02,14,14,48,6.40
2014,02,14,14,49,8.10
2014,02,14,14,50,4.80
2014,02,14,14,51,8.10
2014,02,14,14,52,14.50
2014,02,14,14,53,9.60
2014,02,14,14,54,12.90
2014,02,14,14,55,14.50
2014,02,14,14,56,16.10
2014,02,14,14,57,11.30
2014,02,14,14,58,11.30
2014,02,14,14,59,4.80
2014,02,14,15,00,4.80
2014,02,14,15,01,8.10
2014,02,14,15,02,4.80
2014,02,14,15,03,4.80
2014,02,14,15,04,4.80
2014,02,14,15,05,8.10
2014,02,14,15,06,17.70
2014,02,14,15,07,17.70
2014,02,14,15,08,11.30
2014,02,14,15,09,16.10
2014,02,14,15,10,17.70
2014,02,14,15,11,12.90
2014,02,14,15,12,11.30
2014,02,14,15,13,8.10
2014,02,14,15,14,22.50
2014,02,14,15,15,16.10
2014,02,14,15,16,30.60
2014,02,14,15,17,19.30
2014,02,14,15,18,24.20
2014,02,14,15,19,22.50
2014,02,14,15,20,17.70
2014,02,14,15,21,17.70
2014,02,14,15,22,24.20
2014,02,14,15,23,29.00
2014,02,14,15,24,22.50
2014,02,14,15,25,19.30
2014,02,14,15,26,22.50
2014,02,14,15,27,19.30
2014,02,14,15,28,29.00
2014,02,14,15,29,30.60
2014,02,14,15,30,33.80
2014,02,14,15,31,20.90
2014,02,14,15,32,22.50
2014,02,14,15,33,22.50
2014,02,14,15,34,16.10
2014,02,14,15,35,19.30
2014,02,14,15,36,17.70
2014,02,14,15,37,20.90
2014,02,14,15,38,14.50
2014,02,14,15,39,14.50
2014,02,14,15,40,19.30
2014,02,14,15,41,25.70
2014,02,14,15,42,17.70
2014,02,14,15,43,16.10
2014,02,14,15,44,16.10
2014,02,14,15,45,19.30
2014,02,14,15,46,20.90
2014,02,14,15,47,20.90
2014,02,14,15,48,35.40
2014,02,14,15,49,29.00
2014,02,14,15,50,24.20
2014,02,14,15,51,25.70
2014,02,14,15,52,25.70
2014,02,14,15,53,25.70
2014,02,14,15,54,20.90
2014,02,14,15,55,17.70
2014,02,14,15,56,27.40
2014,02,14,15,57,25.70
2014,02,14,15,58,16.10
2014,02,14,15,59,14.50
2014,02,14,16,00,16.10
2014,02,14,16,01,25.70
2014,02,14,16,02,20.90
2014,02,14,16,03,22.50
2014,02,14,16,04,19.30
2014,02,14,16,05,17.70
2014,02,14,16,06,24.20
2014,02,14,16,07,16.10
2014,02,14,16,08,24.20
2014,02,14,16,09,20.90
2014,02,14,16,10,17.70
2014,02,14,16,11,17.70
2014,02,14,16,12,16.10
2014,02,14,16,13,22.50
2014,02,14,16,14,17.70
2014,02,14,16,15,22.50
2014,02,14,16,16,22.50
2014,02,14,16,17,16.10
2014,02,14,16,18,30.60
2014,02,14,16,19,17.70
2014,02,14,16,20,24.20
2014,02,14,16,21,19.30
2014,02,14,16,22,16.10
2014,02,14,16,23,17.70
2014,02,14,16,24,24.20
2014,02,14,16,25,20.90
2014,02,14,16,26,20.90
2014,02,14,16,27,19.30
2014,02,14,16,28,16.10
2014,02,14,16,29,11.30
2014,02,14,16,30,17.70
2014,02,14,16,31,19.30
2014,02,14,16,32,27.40
2014,02,14,16,33,20.90
2014,02,14,16,34,16.10
2014,02,14,16,35,16.10
2014,02,14,16,36,16.10
2014,02,14,16,37,19.30
2014,02,14,16,38,16.10
2014,02,14,16,39,27.40
2014,02,14,16,40,17.70
2014,02,14,16,41,17.70
2014,02,14,16,42,24.20
2014,02,14,16,43,19.30
2014,02,14,16,44,19.30
2014,02,14,16,45,19.30
2014,02,14,16,46,20.90
2014,02,14,16,47,29.00
2014,02,14,16,48,17.70
2014,02,14,16,49,20.90
2014,02,14,16,50,19.30
2014,02,14,16,51,22.50
2014,02,14,16,52,12.90
2014,02,14,16,53,16.10
2014,02,14,16,54,17.70
2014,02,14,16,55,17.70
2014,02,14,16,56,29.00
2014,02,14,16,57,30.60
2014,02,14,16,58,30.60
2014,02,14,16,59,40.20
2014,02,14,17,00,27.40
2014,02,14,17,01,22.50
2014,02,14,17,02,22.50
2014,02,14,17,03,30.60
2014,02,14,17,04,19.30
2014,02,14,17,05,20.90
2014,02,14,17,06,17.70
2014,02,14,17,07,25.70
2014,02,14,17,08,22.50
2014,02,14,17,09,16.10
2014,02,14,17,10,19.30
2014,02,14,17,11,19.30
2014,02,14,17,12,22.50
2014,02,14,17,13,20.90
2014,02,14,17,14,25.70
2014,02,14,17,15,27.40
2014,02,14,17,16,25.70
2014,02,14,17,17,19.30
2014,02,14,17,18,27.40
2014,02,14,17,19,25.70
2014,02,14,17,20,32.20
2014,02,14,17,21,30.60
2014,02,14,17,22,22.50
2014,02,14,17,23,16.10
2014,02,14,17,24,22.50
2014,02,14,17,25,35.40
2014,02,14,17,26,29.00
2014,02,14,17,27,27.40
2014,02,14,17,28,25.70
2014,02,14,17,29,20.90
2014,02,14,17,30,29.00
2014,02,14,17,31,33.80
2014,02,14,17,32,29.00
2014,02,14,17,33,33.80